Location: La Vergne
(36.0160°N, 86.5820°W)
Time: 18:41:06
(UTC-06:00)

Cosmos 1697 Rocket - Pass Details

Date: 24 September 2017
Orbit: 833 x 843 km, 71.0° (Epoch: 16 December)

Event Time Altitude Azimuth Distance (km) Brightness Sun altitude
Rises 20:50:14 0° 350° (N) 3,405 6.2 -26.7°
Reaches altitude 10° 20:53:07 10° 3° (N) 2,467 5.3 -27.3°
Enters shadow 20:55:33 20° 25° (NNE) 1,850 4.4 -27.7°
